Find Starlink 38129

NORAD ID: 100268 Int'l Des: 2026-181 Owner: SPXS Country: US Constellation: starlink operational

当前视图

正在加载3D地球...

About Starlink 38129

Starlink 38129 (NORAD 100268) is a starlink constellation satellite launched Aug 8, 2026 by SPXS of US. with a mass of 575.00 kg.

即将过境

Passes for default location (London). Set your location on the main map for personalized predictions.

高度历史

Loading altitude history...

两行轨道根数

1 A0268U 26181Y 26263.59786505 .00170533 00000-0 11197-2 0 9998
2 A0268 97.2845 307.1632 0001352 84.0862 276.0557 15.75227646 7963
Epoch: Sep 20, 2026 • Age: 8 hours

当前状态

高度 349.9 km
远地点 / 近地点 N/A
速度 7.70 km/s
星下点 44.34°N, 156.67°E
发射日期 Aug 8, 2026
运行时间 0.1 years
类型 internet

技术详情

分类 Payload
质量 575.00 kg
干质量 530.00 kg
长度 0.30 m
跨度 29.00 m
形状 ? Box + pan
制造商 SPXS
平台类型 Starlink V2MO
阶段状态 In Orbit
所有者/国家 SPXS/US

Most Searched